Zurück zum Katalog

DELTA 1 DEB

AktivPO
NORAD 9619·DEBRIS·🇺🇸 United States

Gestartet Jan 22, 1975 von Vandenberg Space Force Base

Loading…

Nächste Überflüge (nächste 24 Stunden)

TLE

AktuellSource: Space-Track

Epoche: Sep 14, 2026, 09:46 UTC

1 09619U 75004FU  26257.40747558  .00001699  00000-0  42287-3 0  9994
2 09619  97.3928 230.5634 0100587  71.0044 290.2020 14.49754946684315

Verfolge DELTA 1 DEB in Echtzeit mit AllMySat

Download on the App Store